Location: *
(35.2348°S, 91.3916°E)
Time: 15:33:22
(UTC+00:00)

COSMOS 2406 - Pass Details

Date: 23 October 2019
Orbit: 842 x 865 km, 71.0° (Epoch: 14 November)

Event Time Altitude Azimuth Distance (km) Brightness Sun altitude
Rises 13:07:47 0° 349° (N) 3,401 6.2 -10.9°
Reaches altitude 10° 13:10:14 10° 352° (N) 2,470 5.5 -11.3°
Maximum altitude 13:15:50 64° 72° (ENE) 940 3.2 -12.4°
Drops below altitude 10° 13:21:29 10° 152° (SSE) 2,489 5.6 -13.4°
Sets 13:23:57 0° 155° (SSE) 3,430 6.4 -13.9°
